Location: Unspecified
(42.3650°N, 71.1030°W)
Time: 12:37:39
(UTC+00:00)

Courier 1B - Pass Details

Date: 03 July 2024
Orbit: 962 x 1209 km, 28.3° (Epoch: 25 July)

Event Time Altitude Azimuth Distance (km) Brightness Sun altitude
Rises 00:45:09 0° 223° (SW) 3,632 10.6 -3.9°
Reaches altitude 10° 00:48:43 10° 204° (SSW) 2,682 9.7 -4.5°
Maximum altitude 00:52:45 17° 165° (SSE) 2,199 8.9 -5.0°
Drops below altitude 10° 00:56:49 10° 125° (SE) 2,711 9.1 -5.6°
Enters shadow 00:58:15 - 117° (ESE) 3,063 9.5 -5.8°
Sets 01:00:27 0° 107° (ESE) 3,689 - -6.2°
